Voltar ao catálogo

CHINASAT 5

SPACENET 1

AtivoComunicaçõesGEO
NORAD 14985·PAYLOAD·🇨🇳 China

Lançado May 23, 1984 de Guiana Space Centre

Loading…

TLE

AtualizadoSource: Space-Track

Época: Sep 14, 2026, 16:00 UTC

1 14985U 84049A   26257.66705476 -.00000302  00000-0  00000-0 0  9991
2 14985  14.3166 347.6268 0011976 237.0023 112.8989  0.99983600132195

Acompanhe CHINASAT 5 em tempo real com AllMySat

Download on the App Store